This demonstration page uses our WeatherBlox Daily Observations layout. Learn more.

Left ArrowRight Arrow

39.92423, -83.80882

Hourly Observations for September 24, 2015

Temp ( °F °C ) Dew Point ( °F °C ) Humidity (%) Winds ( mph kmh ) Pressure ( in mb ) Visibility ( mi km ) Precip ( " mm )
12:56 am 00:56 Clear 57 13.8 53 11.6 87 87 NE 6 9 30.22 1024 10 16.0934 0 0
1:56 am 01:56 Clear 55 12.7 53 11.6 93 93 NE 6 9 30.22 1024 10 16.0934 0 0
2:56 am 02:56 Clear 55 12.7 53 11.6 93 93 ENE 3 6 30.22 1024 10 16.0934 0 0
3:56 am 03:56 Clear 54 12.2 53 11.6 96 96 NE 5 7 30.22 1023 10 16.0934 0 0
4:56 am 04:56 Clear 55 12.7 54 12.2 97 97 ENE 3 6 30.22 1023 10 16.0934 0 0
5:56 am 05:56 Clear 54 12.2 53 11.6 96 96 NNE 5 7 30.23 1024 10 16.0934 0 0
6:56 am 06:56 Clear 52 11.1 52 11.1 100 100 ENE 5 7 30.25 1024 10 16.0934 0 0
7:56 am 07:56 Sunny 53 11.6 53 11.6 100 100 NE 5 7 30.26 1025 10 16.0934 0 0
8:56 am 08:56 Sunny 60 15.5 58 14.4 93 93 ENE 5 7 30.27 1025 10 16.0934 0 0
9:56 am 09:56 Sunny 68 20 58 14.4 70 70 E 7 11 30.27 1025 10 16.0934 0 0
10:56 am 10:56 Sunny 74 23.3 54 12.2 50 50 ENE 8 13 30.26 1025 10 16.0934 0 0
11:56 am 11:56 Sunny 77 25 49 9.4 37 37 E 12 19 30.26 1025 10 16.0934 0 0
12:56 pm 12:56 Sunny 80 26.6 48 8.8 33 33 ESE 9 15 30.24 1024 10 16.0934 0 0
1:56 pm 13:56 Sunny 82 27.7 43 6.1 25 25 ESE 13 20 30.23 1024 10 16.0934 0 0
2:56 pm 14:56 Sunny 83 28.3 44 6.6 25 25 E 7 11 30.22 1023 10 16.0934 0 0
3:56 pm 15:56 Sunny 84 28.8 43 6.1 24 24 E 12 19 30.2 1023 10 16.0934 0 0
4:56 pm 16:56 Sunny 84 28.8 47 8.3 28 28 ENE 10 17 30.18 1022 10 16.0934 0 0
5:56 pm 17:56 Sunny 82 27.7 47 8.3 29 29 E 12 19 30.18 1022 10 16.0934 0 0
6:56 pm 18:56 Sunny 78 25.5 50 10 38 38 E 7 11 30.19 1022 10 16.0934 0 0
7:56 pm 19:56 Clear 68 20 51 10.5 54 54 ENE 6 9 30.19 1023 10 16.0934 0 0
8:56 pm 20:56 Clear 63 17.2 50 10 63 63 E 6 9 30.2 1023 10 16.0934 0 0
9:56 pm 21:56 Clear 62 16.6 50 10 65 65 NE 7 11 30.21 1023 10 16.0934 0 0
10:56 pm 22:56 Clear 61 16.1 50 10 67 67 NE 5 7 30.21 1023 10 16.0934 0 0
11:56 pm 23:56 Clear 58 14.4 51 10.5 78 78 ENE 7 11 30.21 1023 10 16.0934 0 0

Powered by AerisWeather